Location: Barcelona
(41.3829°N, 2.1774°E)
Time: 21:34:33
(UTC+00:00)

ISS - Pass Details

Date: 11 July 2025
Orbit: 413 x 417 km, 51.6° (Epoch: 13 July)

Event Time Altitude Azimuth Distance (km) Brightness Sun altitude
Rises 23:59:10 0° 307° (NW) 2,356 0.5 -26.5°
Reaches altitude 10° 00:01:50 10° 330° (NNW) 1,493 -0.2 -26.5°
Maximum altitude 00:04:03 16° 11° (N) 1,166 -0.7 -26.5°
Drops below altitude 10° 00:06:16 10° 53° (NE) 1,493 -0.5 -26.5°
Sets 00:08:56 0° 75° (ENE) 2,356 0.3 -26.5°
